TimeEDT,TemperatureF,Dew PointF,Humidity,Sea Level PressureIn,VisibilityMPH,Wind Direction,Wind SpeedMPH,Gust SpeedMPH,PrecipitationIn,Events,Conditions,WindDirDegrees,DateUTC
12:00 AM,42.8,37.4,81,29.82,15.0,WSW,11.5,-,N/A,,Overcast,250,2012-10-11 04:00:00
1:00 AM,42.8,37.4,81,29.83,15.0,West,12.7,20.7,N/A,,Mostly Cloudy,260,2012-10-11 05:00:00
2:00 AM,41,36,78,29.86,15,West,11.5,,,,Partly Cloudy,270,2012-10-11 06:00:00
2:00 AM,41.0,37.4,87,29.86,15.0,West,10.4,-,N/A,,Mostly Cloudy,270,2012-10-11 06:00:00
3:00 AM,39.2,35.6,87,29.88,15.0,West,9.2,-,N/A,,Scattered Clouds,260,2012-10-11 07:00:00
4:00 AM,37.4,33.8,87,29.91,15.0,WSW,8.1,-,N/A,,Scattered Clouds,250,2012-10-11 08:00:00
4:26 AM,35.6,33.8,93,29.93,15.0,West,5.8,-,N/A,,Partly Cloudy,270,2012-10-11 08:26:00
5:00 AM,35.6,32.0,87,29.95,15.0,West,4.6,-,N/A,,Partly Cloudy,260,2012-10-11 09:00:00
6:00 AM,33.8,32.0,93,29.99,15.0,SW,8.1,-,N/A,,Mostly Cloudy,230,2012-10-11 10:00:00
7:00 AM,35.6,33.8,93,30.01,15.0,WSW,6.9,-,N/A,,Scattered Clouds,250,2012-10-11 11:00:00
8:00 AM,37,34,85,30.03,15,WSW,9.2,,,,Scattered Clouds,240,2012-10-11 12:00:00
8:00 AM,37.4,33.8,87,30.03,15.0,WSW,9.2,-,N/A,,Partly Cloudy,240,2012-10-11 12:00:00
9:00 AM,39.2,35.6,87,30.04,15.0,West,9.2,-,N/A,,Partly Cloudy,260,2012-10-11 13:00:00
10:00 AM,42.8,33.8,70,30.05,15.0,West,16.1,21.9,N/A,,Partly Cloudy,270,2012-10-11 14:00:00
11:00 AM,44.6,33.8,66,30.06,15.0,West,15.0,-,N/A,,Scattered Clouds,280,2012-10-11 15:00:00
12:00 PM,46.4,32.0,57,30.07,15.0,WSW,13.8,24.2,N/A,,Scattered Clouds,250,2012-10-11 16:00:00
1:00 PM,50.0,30.2,47,30.05,15.0,WSW,12.7,21.9,N/A,,Scattered Clouds,250,2012-10-11 17:00:00
2:00 PM,50,26,27,30.04,15,West,16.1,,,,Scattered Clouds,270,2012-10-11 18:00:00
2:00 PM,50.0,26.6,40,30.03,15.0,West,16.1,24.2,N/A,,Scattered Clouds,270,2012-10-11 18:00:00
3:00 PM,48.2,30.2,50,30.03,15.0,SW,15.0,-,N/A,,Mostly Cloudy,220,2012-10-11 19:00:00
4:00 PM,46.4,32.0,57,30.03,15.0,SW,15.0,-,N/A,,Overcast,230,2012-10-11 20:00:00
4:49 PM,46.4,33.8,62,30.01,15.0,WSW,13.8,24.2,N/A,Rain,Light Rain,240,2012-10-11 20:49:00
5:00 PM,42.8,35.6,76,30.01,15.0,WSW,18.4,29.9,N/A,Rain,Light Rain,240,2012-10-11 21:00:00
6:00 PM,44.6,35.6,71,30.00,10.0,SW,15.0,21.9,N/A,Rain,Light Rain,220,2012-10-11 22:00:00
7:00 PM,41.0,35.6,81,29.98,12.0,SSW,10.4,-,N/A,Rain,Light Rain,200,2012-10-11 23:00:00
8:00 PM,41,36,77,29.95,15,South,11.5,,,Rain,Light Rain,180,2012-10-12 00:00:00
8:00 PM,41.0,35.6,81,29.94,15.0,South,11.5,18.4,N/A,Rain,Light Rain,180,2012-10-12 00:00:00
8:14 PM,41.0,35.6,81,29.94,15.0,South,11.5,18.4,N/A,,Overcast,190,2012-10-12 00:14:00
9:00 PM,41.0,35.6,81,29.91,15.0,South,13.8,20.7,N/A,,Overcast,180,2012-10-12 01:00:00
9:54 PM,42.8,39.2,87,29.90,15.0,SSW,9.2,19.6,N/A,Rain,Light Rain,210,2012-10-12 01:54:00
10:00 PM,42.8,39.2,87,29.89,12.0,SW,11.5,19.6,N/A,Rain,Light Rain,220,2012-10-12 02:00:00
11:00 PM,42.8,41.0,93,29.90,10.0,SSW,15.0,21.9,N/A,Rain,Light Rain,210,2012-10-12 03:00:00
11:19 PM,42.8,41.0,93,29.89,12.0,SW,13.8,21.9,N/A,,Overcast,220,2012-10-12 03:19:00